Погода в Мукачеве

Украина / Закарпатская область     48°26′31″N   22°43′05″E
В апреле 2022 года жителям России запретили посещать сайт meteo.paraplan.net по решению Генеральной прокуратуры. Аудитория сайта уменьшилась в 10 раз. Владельцы сайта не видят смысла в поддержке погодного сервера в таких условиях. Сайт будет закрыт в октябре.
темп.,
°C
ветер,
м/с
пор.,
м/с
влажн.,
%
обл.,
%
осадки,
мм/ч
давл.,
гПа
погр.,
м
25 сентября, вс
вс2500:00+10в2280100 0.0 101944
03:00+10вюв2279100 0.0 101935
06:00+10вюв1176100 0.0 101825
09:00+10вюв2274100 0.0 101767
12:00+12ююв2372100 0.0 1018189
15:00+11юв2377100 0.3 1017262
18:00+10в1186100 0.1 101634
21:00+10всв2289100 0.8 101531
26 сентября, пн
пн2600:00+10всв2287100 0.5 101421
03:00+10всв1183100 0.5 101210
06:00+10юв1191100 1.2 101220
09:00+10вюв1296100 5.2 101186
12:00+10вюв2497100 4.7 1011209
15:00+11в1295100 7.9 1010124
18:00+12вюв2289100 0.3 1009100
21:00+11в2288100 0.3 100832
27 сентября, вт
вт2700:00+11вюв1192100 0.3 100719
03:00+12в1195100 0.7 100415
06:00+11всв1197100 2.6 100333
09:00+12ююз1199100 4.4 100288
12:00+12юв1197100 1.7 1002160
15:00+13ююз1297100 3.4 1002179
18:00+13ю2393100 1.8 1001230
21:00+12вюв119687 2.4 100214
28 сентября, ср
ср2800:00+11юв229598 0.3 100323
03:00+10ююв1197100 0.7 100313
06:00+10ююз119998 1.1 100335
09:00+11юв239594 1.6 1004269
12:00+13ю457869 0.1 1005857
15:00+16ю455610 0.1 10041329
18:00+14ююв3568100 0.0 1004269
21:00+10в227980 0.0 100614
29 сентября, чт
чт2900:00+10в2278100 0.0 100616
03:00+11всв2276100 0.0 100530
06:00+11в2279100 0.0 100516
09:00+12ююв1182100 0.1 100555
12:00+13вюв1387100 0.6 1006155
15:00+12в2394100 1.9 100695
18:00+13ююв2494100 0.9 1007156
21:00+13юв2398100 3.3 1008115